Погода в Кунграде

Погода в Кунграде : погода сейчас, прогноз погоды и архив. Всё, что Вы хотите узнать о погоде в Кунграде!

Хотите узнать прогноз погоды в Кунграде? Тогда Вам сюда: Погода в Кунграде

Поиск расширенной информации на нашем сайте:

Полезная информация: веник сорго

Другие новости

Новости СМИ2

Главная страница сайта

Новости сайта

02.10.2013

Напоминаем, что на нашем новом сайте вы можете получить высокодетализированные прогнозы погоды по пунктам России, СНГ и мира (включающие важные для авиации метеовеличины, такие как направление и скорость ветра, видимость, явления погоды, количество и форма облачности, нижняя и верхняя граница облачности), а также ознакомиться с разнообразными материалами по авиационной метеорологии и подборкой полезных ссылок на эту тему.

Сайт Метеоцентр.Азия посвящён разработке технологий оптимизации авиаметеорологического обслуживания, включая проектирование и перспективное создание нескольких автоматизированных авиаметеорологических систем:
- система выпуска высокодетальных прогностических карт явлений погоды для нижнего воздушного пространства по России и ближнему зарубежью;
- система верификации прогнозов TAF (выпускаемых синоптиками официальных АМСГ РФ и ближнего зарубежья) и AUTOTAF (выпускаемых сайтом Метеоцентр.Азия) - выявление ошибок, онлайн-сопоставление с фактической погодой METAR, автоматическое внесение коррективов в прогнозы при резком отклонении фактической погоды от прогноза, подсчёт оправдываемости прогнозов по элементам и в целом;
- система обработки, анализа и отображения авиаметеорологической информации для применения провайдерами метеорологической информации.

Рекомендуем: купоны airbnb 2017

Погода в Кунграде - сегодня

Время (UTC), дата Ветер
(°,м/с) 
Видим.   Явления Облачность Т
(°С)
Тd
(°С)
f(%) Тe
(°С)
Pmin
(гПа)
dP
(гПа)
Po
(мм)
O2
(г/м3)
Тmin Tmax R s Состояние
почвы
12 25.05.17 210 (ЮЗ) 20000 м    6/0 верхняя 
[Ci sp]
+35 +7.7 19 +35  1010.4  -1.2  753  268           
15 25.05.17 080 (В) 20000 м    9/6 600 м кучево-дожд., верхняя 
[Cb cap|Ci sp]
+32 +10 26 +33  1008.8  -1.6  751  269    +36       
18 25.05.17 060 (СВ) 20000 м  гроза, ливневой дождь  10/10 600 м кучево-дожд. 
[Cb cap]
+27.6 +10.6 35 +30  1009.7  0.8  752  273    +36       
21 25.05.17 190 (Ю) 20000 м    3/0 верхняя 
[Ci sp]
+21.8 +12.3 55 +26  1009.2  -0.6  752  278           
00 26.05.17 180 (Ю) 20000 м    6/6 600 м кучево-дожд. 
[Cb cap]
+21.2 +12.4 57 +26  1009.6  0.4  752  279           
03 26.05.17 220 (ЮЗ) 20000 м    6/0 верхняя 
[Ci sp]
+22 +13.9 60 +29  1010.3  0.7  752  278           
06 26.05.17 250 (З) 20000 м    ясно 
+27.8 +13.5 41 +34  1011  0.8  753  273  +18.9         
09 26.05.17 300 (СЗ) 20000 м    ясно 
+31.5 +12 30 +35  1011  753  270           
12 26.05.17 280 (З) 20000 м    8/0 верхняя 
[Ci sp]
+31.9 +6.1 20 +32  1010.4  -0.5  753  271           
18 26.05.17 280 (З) 20000 м    3/0 верхняя 
[Ci sp]
+20.4 +10.5 53 +22  1011.8  753  281    +33.7       
21 26.05.17 320 (СЗ) 20000 м    3/0 верхняя 
[Ci sp]
+17.6 +12 70 +23  1011.6  -0.2  753  283           
00 27.05.17 330 (СЗ) 20000 м    3/0 верхняя 
[Ci sp]
+16.6 +10.6 68 +20  1012.8  1.1  754  285           
06 27.05.17 010 (С) 20000 м    ясно 
+25.4 +12 43 +29  1013  0.1  754  276  +15         
09 27.05.17 130 (ЮВ) 20000 м    3/0 верхняя 
[Ci sp]
+30.2 +10.5 30 +32  1012.5  -0.4  754  272           
12 27.05.17 350 (С) 20000 м    8/0 верхняя 
[Ci sp]
+29.4 +7.7 26 +29  1011.8  -0.6  754  273           
18 27.05.17 060 (СВ) 20000 м    ясно 
+23.7 +11.2 45 +26  1009.9  -0.1  752  277    +32.2       
21 27.05.17 070 (В) 20000 м    ясно 
+20.7 +10.2 51 +22  1009.5  -0.5  752  280           
00 28.05.17 080 (В) 20000 м    6/6 600 м 
[Cu hum]
+19.9 +9.4 51 +21  1009.5  752  281           
06 28.05.17 090 (В) 20000 м    3/0 верхняя 
[Ci sp]
+27.8 +8.1 29 +28  1008.6  -0.5  751  273  +19.5         
09 28.05.17 090 (В) 20000 м    3/0 верхняя 
[Ci sp]
+33.6 +8.6 21 +34  1008.7  751  268           
12 28.05.17 100 (В) 20000 м    3/3 1000 м 
[Cu hum]
+35.8 +8.9 19 +36  1004.6  -3.8  748  265           
15 28.05.17 020 (С) 15  20000 м    ясно 
+27.2 +11.1 37 +30  1004.8  0.1  748  272    +36.7       
18 28.05.17 010 (С) 20000 м    ясно 
+21.7 +13.4 59 +28  1007.5  2.6  750  277    +36.7       
21 28.05.17 350 (С) 20000 м    ясно 
+18.6 +13.9 74 +26  1008.7  1.1  751  281           
00 29.05.17 300 (СЗ) 20000 м    ясно 
+16.2 +12.4 78 +21  1010.1  1.4  752  284           
Время (UTC), дата Ветер
(°,м/с) 
Видим.   Явления Облачность Т
(°С)
Тd
(°С)
f(%) Тe
(°С)
Pmin
(гПа)
dP
(гПа)
Po
(мм)
O2
(г/м3)
Тmin Tmax R s Состояние
почвы

Для получения пояснительной информации подведите курсор к названию столбца.

ПОГОДА в Кунграде - архив

Всё, что Вы хотите узнать о погоде в Кунграде - удобно и подробно!

Выберите нужную дату (начиная с 1 января 2015* года) и нажмите кнопку "Найти".
Будут отображены архивные сводки погоды по пункту Кунград, начиная с указанной даты.


Отображать данные в формате CSV (для использования в таблицах Excel)


Внимание! Наш архив погоды предназначен исключительно для личного некоммерческого использования в познавательных целях. Если Вам необходимы официальные справки о состоянии погоды (для производственных, юридических, коммерческих и т.п. целей), обращайтесь в органы Росгидромета.

*Примечание: данная дата относится к архиву по метеостанциям СССР (Россия, СНГ, Балтия).
Архив по метеостанциям Зарубежной Европы и Азии (кроме Китая) хранится 10 дней, по другим регионам земного шара (Китай, Африка, Америка, Австралия, Океания) - 1 день.

Кунград - район местоположения метеостанции


Название, широта, долгота, высота метеостанции:
Кунград 43.1°ш. 58.9°д. 64 м над ур. моря [Узбекистан]

Дополнительная информация

В oтличие oт бoльшинства пoгoдных сайтoв мы публикуем пoдрoбную метеoинфoрмацию в детальнoм прoфессиoнальнoм фoрмате.

Характеристики температуры и влажнoсти вoздуха измеряются на высoте 2 м в тени вдали oт зданий и деревьев.
Скoрoсть ветра измеряется на высoте 10 м (на урoвне рoста челoвека скoрoсть ветра ниже в 1.5-2 раза). Если метеoстанция нахoдится в гoрoде или в лесу, тo скoрoсть ветра занижена на 2-4 м/с пo сравнению с oткрытым местoм. Скoрoсть ветра над акватoриями крупных рек и oзёр, а также на вершинах хoлмoв на 2-5 м/с выше, чем в oбычных услoвиях.
Атмoсфернoе давление в разных тoчках местнoсти мoжет значительнo oтличаться oт давления на метеoстанции, в зависимoсти oт услoвий рельефа (при пoдъёме на 10 м давление пoнижается примернo на 1 мм рт.ст.).